Location: Cave
(41.8160°N, 12.9350°E)
Time: 18:40:13
(UTC+02:00)

ISS - Pass Details

Date: 05 July 2019
Orbit: 409 x 418 km, 51.6° (Epoch: 22 July)

Event Time Altitude Azimuth Distance (km) Brightness Sun altitude
Exits shadow 02:33:28 18° 92° (E) 1,096 -1.5 -22.7°
Drops below altitude 10° 02:34:40 10° 77° (ENE) 1,477 -0.6 -22.6°
Sets 02:36:58 0° 64° (ENE) 2,341 0.7 -22.5°
